User: anonymous   Login
Location: Unspecified
(0.0000°N, 0.0000°E)
Time: 17:36:27
(UTC+00:00)
Language:

Envisat - Orbit

View from above orbital plane
View from above orbital plane
View from above satellite
View from above satellite

Ground track
Ground track

The orbit data is extracted from the following two-line orbital elements,

1 27386U 02009A   17114.17842840 -.00000042 +00000-0 -18152-6 0  9996
2 27386 098.2370 161.6968 0001368 095.8010 264.3351 14.37893051793313
Epoch (UTC): 24 April 2017 04:16:56
Eccentricity: 0.0001368
inclination: 98.2370°
perigee height: 764 km
apogee height: 766 km
right ascension of ascending node: 161.6968°
argument of perigee: 95.8010°
revolutions per day: 14.37893051
mean anomaly at epoch: 264.3351°
orbit number at epoch: 79331

The dashed part of the orbit path shows where the satellite is in the earth's shadow,  

DLR